weather.gov     
National Weather Service

Regional Weather Roundup
NWS Homepage
This page is being discontinued on March 12, 2014.
The same data is available at this site. Please update your bookmarks.
Thank you, and we apologize for the inconvenience.
Please send an email to SR-SRH.Webmaster@noaa.gov with any concerns.


Current Version
Previous Version:    01  02  03  04  05  06  07  08  09  10  11  12  13  14  15  16  17  18  19  20  21  22  23  24  25  26  
[Printable]
193
ASUS42 KILM 241310
RWRILM
RWRILM
REGIONAL HOURLY WEATHER ROUNDUP
NATIONAL WEATHER SERVICE WILMINGTON NC
900 AM EDT FRI OCT 24 2014

NOTE: "FAIR" INDICATES FEW OR NO CLOUDS BELOW 12,000 FEET WITH NO
SIGNIFICANT WEATHER AND/OR OBSTRUCTIONS TO VISIBILITY.

...............WFO WILMINGTON COUNTY WARNING AREA...............

......COASTAL NC AND SC COUNTIES......

CITY           SKY/WX    TMP DP  RH WIND       PRES   REMARKS
WILMINGTON     MOSUNNY   52  45  77 N5        30.04R
SOUTHPORT      PTSUNNY   50  44  79 N8        30.05R
N MYRTLE BEACH PTSUNNY   52  45  77 VRB6      30.05R
MYRTLE BEACH   SUNNY     54  45  71 N12       30.05R

......INLAND NC AND SC COUNTIES.......

CITY           SKY/WX    TMP DP  RH WIND       PRES   REMARKS
LUMBERTON      PTSUNNY   48  45  89 W3        30.06R
ELIZABETHTOWN  PTSUNNY   49  43  80 CALM      30.06R
WHITEVILLE     PTSUNNY   50  44  81 CALM      30.06R
FLORENCE       PTSUNNY   50  44  80 N7        30.06R
DARLINGTON     MOSUNNY   50  43  76 N5        30.08R

....................REST OF NORTH CAROLINA......................

.........EASTERN NC.........

CITY           SKY/WX    TMP DP  RH WIND       PRES   REMARKS
CAPE HATTERAS  MOSUNNY   58  48  69 N9        29.98R
JACKSONVILLE   CLOUDY    50  45  81 N5        30.04R
MOREHEAD CITY  MOSUNNY   56  48  74 N12       30.03R
KENANSVILLE    CLOUDY    49  44  85 N3        30.05R
NEW BERN       CLOUDY    53  47  79 W5        30.05R
ELIZABETH CITY MOSUNNY   51  44  77 W9        30.00R

.........CENTRAL NC.........

CITY           SKY/WX    TMP DP  RH WIND       PRES   REMARKS
RALEIGH DURHAM PTSUNNY   48  43  82 CALM      30.06R
ROCKY MOUNT    PTSUNNY   50  43  77 VRB5      30.04R
ROANOKE RAPIDS NOT AVBL
FAYETTEVILLE   MOSUNNY   52  43  71 N8        30.05R
HOFFMAN        MOSUNNY   50  45  84 NW2       30.08R

.........WESTERN NC.........

CITY           SKY/WX    TMP DP  RH WIND       PRES   REMARKS
CHARLOTTE      PTSUNNY   47  42  83 CALM      30.08R
GREENSBORO     PTSUNNY   50  41  71 CALM      30.05R
HICKORY        NOT AVBL
BOONE          NOT AVBL
ASHEVILLE      NOT AVBL

.....................REST OF SOUTH CAROLINA.....................

.........EASTERN SC.........

CITY           SKY/WX    TMP DP  RH WIND       PRES   REMARKS
CHARLESTON     PTSUNNY   55  47  74 NE6       30.06R
BEAUFORT MCAS  MOSUNNY   57  50  77 N6        30.07R
HILTON HEAD    NOT AVBL

.........CENTRAL SC.........

CITY           SKY/WX    TMP DP  RH WIND       PRES   REMARKS
COLUMBIA       PTSUNNY   48  45  89 S3        30.09R
ORANGEBURG     PTSUNNY   50  45  83 CALM      30.08R
SUMTER SHAW    PTSUNNY   50  46  85 N2        30.06R

.........WESTERN SC.........

CITY           SKY/WX    TMP DP  RH WIND       PRES   REMARKS
GREENVILLE     NOT AVBL
ROCK HILL      MOSUNNY   49  46  90 CALM      30.08R
ANDERSON       SUNNY     47  43  86 CALM      30.07S
CLEMSON        NOT AVBL
GREENWOOD      MOSUNNY   46  43  89 CALM      30.09S


...................COASTAL AND OFFSHORE REPORTS..................

................LOCAL PIERS AND NC RESERVE................


STATION/POSITION TIME  SKY/WX   TEMP    WIND        PRES    VSBY
                                AIR SEA DIR/SP/G
                 (UTC)          (F)     (DEG/KT/KT) (MB)    (MI)
JOHNY MRCER PIER 1300            54 72  350/  7/ 10 1016.5R
NC RESRV MASNBRO 1200            50     350/  2     1016.0S
OCEAN CREST PIER 1300            51 69  330/  9/ 14 1016.0R
SPRINGMAID  PIER 1300            54 69  330/  9/ 13 1017.5R


................COASTAL AND OFFSHORE BUOYS................


STATION/POSITION TIME  SKY/WX   TEMP    WIND        PRES    VSBY
                                AIR SEA DIR/SP/G
                 (UTC)          (F)     (DEG/KT/KT) (MB)    (MI)
DIMNDSHOAL 41025 1300            62     330/ 17/ 21 1015.0R
WVE H/P(F/S)=  4/ 5 WND WVE H/P(F/S)=  3/ 5 SWL H/P/D(F/S/D)=  2/ 40/ 9

CAPE LOOKOUT     1200            57     360/ 10/ 12 1015.7R
ONSLOW BAY 41036 1300            63 75   10/ 16/ 17 1015.6S
WVE H/P(F/S)=  3/11 WND WVE H/P(F/S)=  2/ 4 SWL H/P/D(F/S/D)=  3/100/11

5 WRITEBCH 41038 1300            56 72   20/ 12/ 14   N/A
MASONBORO  41110 1300               72                N/A
WVE H/P(F/S)=  3/11 WND WVE H/P(F/S)=  2/10 SWL H/P/D(F/S/D)=  2/100/11

WILM HARBR 41108 1300               71                N/A
WVE H/P(F/S)=  2/11 WND WVE H/P(F/S)=  2/10 SWL H/P/D(F/S/D)=  2/110/11

27WRITEBCH 41037 NOT AVBL
FRYING PAN 41013 1300            65 74   10/  8/ 10 1017.3R
WVE H/P(F/S)=  3/11 WND WVE H/P(F/S)=  2/ 4 SWL H/P/D(F/S/D)=  3/ 90/11

SUNST NRSH 41024 1200            54      10/ 12/ 14 1016.2R
CAPRS NRSH 41029 NOT AVBL
EDISTO     41004 1300            69 78   10/  8/ 12 1016.4R
WVE H/P(F/S)=  3/11 WND WVE H/P(F/S)=  2/ 4 SWL H/P/D(F/S/D)=  2/11



..........OFFSHORE BUOYS BEYOND 100 NM OFFSHORE...........
.....IN A TRIANGLE---HAT TO BERMUDA TO BAHAMAS TO HAT.....


STATION/POSITION TIME  SKY/WX   TEMP    WIND        PRES    VSBY
                                AIR SEA DIR/SP/G
                 (UTC)          (F)     (DEG/KT/KT) (MB)    (MI)
150E HAT   41001 NOT AVBL
W BERMUDA  41048 1245            75 79  260/ 14/ 17 1013.4R
WVE H/P(F/S)= 10/10 WND WVE H/P(F/S)=  5/ 6 SWL H/P/D(F/S/D)=  8/350/10

ATLANTIC S 41049 1250            81 81  220/ 12/ 14 1014.6R
WVE H/P(F/S)=  4/ 8 WND WVE H/P(F/S)=  2/ 5 SWL H/P/D(F/S/D)=  3/ 50/ 8

E BAHAMAS  41046 1216            83 84  160/ 12/ 16 1013.7R
WVE H/P(F/S)=  3/ 8 WND WVE H/P(F/S)=  2/ 5 SWL H/P/D(F/S/D)=  2/ 80/ 8

NE BAHAMAS 41047 1240            78 82   80/ 12/ 16 1014.3R
WVE H/P(F/S)=  6/11 WND WVE H/P(F/S)=  2/ 4 SWL H/P/D(F/S/D)=  7/350/11

120E CANVRL41010 1300            73 81   30/ 12/ 14 1015.3R
WVE H/P(F/S)=  3/ 9 WND WVE H/P(F/S)=  2/ 5 SWL H/P/D(F/S/D)=  3/ 40/ 9


END




U.S. Dept. of Commerce
NOAA National Weather Service
1325 East West Highway
Silver Spring, MD 20910
E-mail: w-nws.webmaster@noaa.gov
Page last modified: May 16, 2007
NATIONAL WEATHER SERVICE: for Safety, for Work, for Fun - FOR LIFE